Regional Weather Roundup
Issued by NWS

Home | Current Version | Previous Version | Graphics & Text | Print | Product List | Glossary On
Versions: 1 2 3 4 5 6 7 8 9 10 11 12 13 14 15 16 17 18 19 20 21 22 23 24 25 26 27 28 29 30 31 32 33 34 35 36 37 38 39 40 41 42 43 44 45 46 47 48 49 50
432
ASUS44 KLIX 160501
RWRLA
LOUISIANA WEATHER ROUNDUP
NATIONAL WEATHER SERVICE NEW ORLEANS LA
1200 AM CDT WED APR 16 2014

NOTE: "FAIR" INDICATES FEW OR NO CLOUDS BELOW 12,000 FEET WITH NO
      SIGNIFICANT WEATHER AND/OR OBSTRUCTIONS TO VISIBILITY.
      SKY/WX - SKY CONDITION AND SIGNIFICANT WEATHER.
      TMP - AIR TEMPERATURE.    DP   - DEWPOINT TEMPERATURE.
      RH  - RELATIVE HUMIDITY.  PRES - PRESSURE.
      HX  - HEAT INDEX.         WCI  - WIND CHILL INDEX.

*  THESE STATIONS ARE NOT NWS OR FAA STATIONS AND ARE NOT UNDER
   NWS QUALITY CONTROL.

LAZ040-048-061>063-065-066-069-160600-
SOUTHEAST LOUISIANA

CITY           SKY/WX    TMP DP  RH WIND       PRES   REMARKS
N.O. AUDUBON     N/A     53  33  46 MISG        N/A
N.O. INTL ARPT CLEAR     51  34  52 N21G28    30.17F
N.O. LAKEFRONT CLEAR     53  37  54 N26       30.18F
N.O. DOWNTOWN* FAIR      52  28  40 N10G22    30.17F
SLIDELL        CLEAR     45  35  68 N7        30.18F
BATON ROUGE    CLEAR     46  32  58 NE8       30.20F
BOOTHVILLE     CLEAR     56  37  49 N13G21    30.16S
BELLE CHASSE   CLEAR     52  32  46 N8G20     30.16F
BOGALUSA*        N/A     42  35  78 N5        30.23S
GALLIANO*      NOT AVBL
NEW ROADS*     NOT AVBL
GONZALES*      FAIR      47  33  59 N6        30.18F
HAMMOND*       NOT AVBL
HOUMA*         NOT AVBL
PORT FOURCHON* CLEAR     54  37  54 NE16G23   30.17S

$$

LAZ041-044-053-054-160600-
SOUTHWEST LOUISIANA

CITY           SKY/WX    TMP DP  RH WIND       PRES   REMARKS
LAKE CHARLES   CLEAR     46  37  71 E5        30.19R
LAFAYETTE      CLEAR     46  35  65 NE5       30.19S
PATTERSON      CLEAR     48  32  53 NE16      30.20S
SALT POINT       N/A     51  37  58 CALM      30.16S
NEW IBERIA     CLEAR     49  34  56 NE12      30.19S
CHENAULT AIRPK NOT AVBL

$$

LAZ027-028-160600-
CENTRAL LOUISIANA

CITY           SKY/WX    TMP DP  RH WIND       PRES   REMARKS
FORT POLK      CLEAR     42  38  85 CALM      30.19R
ALEXANDRIA INT CLEAR     45  37  73 NE6       30.19S
ALEXANDRIA     CLEAR     45  34  65 E3        30.20F

$$

LAZ001-002-160600-
NORTHWEST LOUISIANA

CITY           SKY/WX    TMP DP  RH WIND       PRES   REMARKS
SHREVEPORT     CLEAR     42  37  82 CALM      30.18F
BARKSDALE AFB  CLEAR     41  37  87 CALM      30.19F
DTN SHREVEPORT CLEAR     40  35  83 CALM      30.19F

$$

LAZ014-016-160600-
NORTHEAST LOUISIANA

CITY           SKY/WX    TMP DP  RH WIND       PRES   REMARKS
MONROE         CLEAR     44  35  70 E5        30.24F
TALLULAH       CLEAR     46  35  65 NE9       30.25S

$$




USA.gov is the U.S. government's official web portal to all federal, state and local government web resources and services.